• In Netherlands
  • List of Countries
  • For 7 days
  • Water Temperature
  • Satellite Maps
  • Weather Map
  • Weather Widgets
  • user-avatar
    Login

    Hourly Weather Orange Walk

    Today, 21 September, Thursday

    Time Temperature Precipitation Wind Pressure Humidity
    00:00 +27°C° 0 mm 2 mps 757 mmHg 93%
    01:00 +27°C° 0.2 mm 2 mps 756 mmHg 94%
    02:00 +26°C° 0.2 mm 2 mps 756 mmHg 95%
    03:00 +26°C° 0.2 mm 1 mps 756 mmHg 97%
    04:00 +26°C° 0 mm 1 mps 756 mmHg 97%
    05:00 +26°C° 0 mm 1 mps 756 mmHg 97%
    06:00 +27°C° 0 mm 1 mps 756 mmHg 96%
    07:00 +29°C° 0 mm 2 mps 756 mmHg 86%
    08:00 +31°C° 0 mm 2 mps 756 mmHg 76%
    09:00 +34°C° 0 mm 3 mps 757 mmHg 66%
    10:00 +35°C° 0 mm 3 mps 756 mmHg 60%
    11:00 +36°C° 0 mm 3 mps 756 mmHg 54%
    12:00 +37°C° 0 mm 3 mps 756 mmHg 48%
    13:00 +37°C° 0 mm 3 mps 755 mmHg 48%
    14:00 +37°C° 0 mm 3 mps 755 mmHg 48%
    15:00 +37°C° 0 mm 3 mps 754 mmHg 48%
    16:00 +35°C° 0 mm 3 mps 754 mmHg 57%
    17:00 +31°C° 0 mm 2 mps 754 mmHg 67%
    18:00 +29°C° 0 mm 2 mps 754 mmHg 76%
    19:00 +29°C° 0 mm 2 mps 755 mmHg 82%
    20:00 +28°C° 0 mm 2 mps 755 mmHg 87%
    21:00 +27°C° 0 mm 1 mps 756 mmHg 93%
    22:00 +27°C° 0 mm 1 mps 756 mmHg 94%
    23:00 +27°C° 0 mm 1 mps 756 mmHg 95%

    Tomorrow, 22 September, Friday

    Time Temperature Precipitation Wind Pressure Humidity
    00:00 +26°C° 0 mm 1 mps 756 mmHg 96%
    01:00 +26°C° 0 mm 1 mps 755 mmHg 96%
    02:00 +26°C° 0 mm 1 mps 755 mmHg 96%
    03:00 +26°C° 0 mm 1 mps 755 mmHg 97%
    04:00 +26°C° 0 mm 1 mps 755 mmHg 97%
    05:00 +26°C° 0 mm 1 mps 755 mmHg 97%
    06:00 +26°C° 0 mm 1 mps 755 mmHg 97%
    07:00 +28°C° 0 mm 1 mps 756 mmHg 86%
    08:00 +31°C° 0 mm 1 mps 756 mmHg 76%
    09:00 +34°C° 0 mm 2 mps 756 mmHg 65%
    10:00 +35°C° 0 mm 2 mps 756 mmHg 60%
    11:00 +36°C° 0 mm 2 mps 755 mmHg 54%
    12:00 +37°C° 0 mm 2 mps 755 mmHg 48%
    13:00 +37°C° 0 mm 2 mps 754 mmHg 48%
    14:00 +37°C° 0 mm 2 mps 753 mmHg 48%
    15:00 +37°C° 0 mm 2 mps 753 mmHg 48%
    16:00 +35°C° 0 mm 2 mps 753 mmHg 57%
    17:00 +32°C° 0 mm 2 mps 753 mmHg 66%
    18:00 +30°C° 0 mm 2 mps 753 mmHg 75%
    19:00 +29°C° 0 mm 2 mps 754 mmHg 80%
    20:00 +28°C° 0 mm 2 mps 754 mmHg 85%
    21:00 +27°C° 0 mm 2 mps 755 mmHg 90%
    22:00 +27°C° 0.1 mm 1 mps 755 mmHg 92%
    23:00 +27°C° 0.1 mm 1 mps 755 mmHg 94%

    Day after tomorrow, 23 September, Saturday

    Time Temperature Precipitation Wind Pressure Humidity
    00:00 +27°C° 0.1 mm 1 mps 755 mmHg 96%
    01:00 +27°C° 0.2 mm 1 mps 754 mmHg 97%
    02:00 +26°C° 0.2 mm 1 mps 754 mmHg 97%
    03:00 +26°C° 0.2 mm 1 mps 754 mmHg 98%
    04:00 +26°C° 0 mm 1 mps 754 mmHg 98%
    05:00 +26°C° 0 mm 1 mps 754 mmHg 98%
    06:00 +26°C° 0 mm 1 mps 754 mmHg 98%
    07:00 +28°C° 0 mm 1 mps 755 mmHg 87%
    08:00 +30°C° 0 mm 1 mps 755 mmHg 76%
    09:00 +33°C° 0 mm 1 mps 755 mmHg 65%
    10:00 +35°C° 0 mm 2 mps 755 mmHg 60%
    11:00 +36°C° 0 mm 2 mps 755 mmHg 54%
    12:00 +37°C° 0 mm 2 mps 754 mmHg 48%
    13:00 +37°C° 0 mm 2 mps 754 mmHg 49%
    14:00 +37°C° 0 mm 2 mps 753 mmHg 49%
    15:00 +37°C° 0 mm 2 mps 752 mmHg 50%
    16:00 +35°C° 0 mm 2 mps 752 mmHg 58%
    17:00 +32°C° 0 mm 2 mps 752 mmHg 67%
    18:00 +30°C° 0 mm 2 mps 753 mmHg 76%
    19:00 +29°C° 0 mm 2 mps 753 mmHg 81%
    20:00 +28°C° 0 mm 2 mps 754 mmHg 86%
    21:00 +28°C° 0 mm 2 mps 755 mmHg 91%
    22:00 +27°C° 0 mm 1 mps 755 mmHg 92%
    23:00 +27°C° 0 mm 1 mps 754 mmHg 93%

    24 September, Sunday

    Time Temperature Precipitation Wind Pressure Humidity
    00:00 +27°C° 0 mm 1 mps 754 mmHg 95%
    01:00 +27°C° 0 mm 1 mps 754 mmHg 95%
    02:00 +27°C° 0 mm 1 mps 754 mmHg 96%
    03:00 +27°C° 0 mm 1 mps 753 mmHg 96%
    04:00 +27°C° 0 mm 1 mps 753 mmHg 96%
    05:00 +26°C° 0 mm 1 mps 754 mmHg 97%
    06:00 +26°C° 0 mm 1 mps 754 mmHg 97%
    07:00 +28°C° 0 mm 1 mps 754 mmHg 88%
    08:00 +30°C° 0 mm 1 mps 755 mmHg 78%
    09:00 +32°C° 0 mm 2 mps 755 mmHg 69%
    10:00 +34°C° 0.1 mm 2 mps 754 mmHg 66%
    11:00 +35°C° 0.1 mm 2 mps 754 mmHg 62%
    12:00 +36°C° 0.1 mm 2 mps 753 mmHg 58%
    13:00 +36°C° 0 mm 2 mps 753 mmHg 58%
    14:00 +36°C° 0 mm 2 mps 752 mmHg 57%
    15:00 +36°C° 0 mm 2 mps 751 mmHg 56%
    16:00 +34°C° 0.1 mm 2 mps 752 mmHg 65%
    17:00 +31°C° 0.1 mm 2 mps 752 mmHg 73%
    18:00 +30°C° 0.1 mm 2 mps 752 mmHg 82%
    19:00 +29°C° 0.2 mm 2 mps 753 mmHg 85%
    20:00 +28°C° 0.2 mm 2 mps 754 mmHg 89%
    21:00 +28°C° 0.2 mm 2 mps 754 mmHg 93%
    22:00 +27°C° 0.2 mm 2 mps 754 mmHg 94%
    23:00 +27°C° 0.2 mm 2 mps 754 mmHg 95%

    25 September, Monday

    Time Temperature Precipitation Wind Pressure Humidity
    00:00 +27°C° 0.2 mm 2 mps 754 mmHg 95%
    01:00 +27°C° 0.2 mm 1 mps 754 mmHg 95%
    02:00 +27°C° 0.2 mm 1 mps 753 mmHg 94%
    03:00 +27°C° 0.2 mm 1 mps 753 mmHg 94%
    04:00 +27°C° 0.1 mm 1 mps 753 mmHg 94%
    05:00 +27°C° 0.1 mm 2 mps 754 mmHg 94%
    06:00 +27°C° 0.1 mm 2 mps 754 mmHg 94%
    07:00 +28°C° 0.1 mm 2 mps 754 mmHg 91%
    08:00 +29°C° 0.1 mm 2 mps 755 mmHg 87%
    09:00 +30°C° 0.1 mm 2 mps 755 mmHg 84%
    10:00 +30°C° 0.2 mm 2 mps 755 mmHg 81%
    11:00 +31°C° 0.2 mm 2 mps 754 mmHg 78%
    12:00 +31°C° 0.2 mm 2 mps 754 mmHg 75%
    13:00 +33°C° 0.1 mm 3 mps 753 mmHg 72%
    14:00 +33°C° 0.1 mm 3 mps 753 mmHg 69%
    15:00 +34°C° 0.1 mm 3 mps 752 mmHg 67%
    16:00 +33°C° 0.1 mm 3 mps 752 mmHg 72%
    17:00 +30°C° 0.1 mm 2 mps 753 mmHg 78%
    18:00 +29°C° 0.1 mm 2 mps 753 mmHg 83%
    19:00 +29°C° 0.2 mm 2 mps 753 mmHg 86%
    20:00 +28°C° 0.2 mm 2 mps 754 mmHg 88%
    21:00 +28°C° 0.2 mm 2 mps 754 mmHg 91%
    22:00 +28°C° 0.1 mm 2 mps 754 mmHg 90%
    23:00 +28°C° 0.1 mm 2 mps 754 mmHg 90%

    26 September, Tuesday

    Time Temperature Precipitation Wind Pressure Humidity
    00:00 +28°C° 0.1 mm 2 mps 754 mmHg 89%
    01:00 +28°C° 0.2 mm 3 mps 753 mmHg 90%
    02:00 +28°C° 0.2 mm 3 mps 753 mmHg 91%
    03:00 +28°C° 0.2 mm 3 mps 753 mmHg 92%
    04:00 +28°C° 0.1 mm 3 mps 753 mmHg 91%
    05:00 +28°C° 0.1 mm 3 mps 753 mmHg 91%
    06:00 +28°C° 0.1 mm 3 mps 753 mmHg 90%
    07:00 +30°C° 0.1 mm 4 mps 753 mmHg 84%
    08:00 +32°C° 0.1 mm 4 mps 753 mmHg 79%
    09:00 +33°C° 0.1 mm 4 mps 754 mmHg 73%
    10:00 +34°C° 0.1 mm 4 mps 753 mmHg 68%
    11:00 +35°C° 0.1 mm 4 mps 753 mmHg 63%
    12:00 +36°C° 0.1 mm 4 mps 753 mmHg 58%
    13:00 +36°C° 0.1 mm 4 mps 752 mmHg 57%
    14:00 +36°C° 0.1 mm 4 mps 752 mmHg 56%
    15:00 +36°C° 0.1 mm 4 mps 751 mmHg 55%
    16:00 +35°C° 0 mm 4 mps 752 mmHg 62%
    17:00 +33°C° 0 mm 3 mps 752 mmHg 70%
    18:00 +30°C° 0 mm 2 mps 752 mmHg 77%
    19:00 +30°C° 0 mm 3 mps 753 mmHg 79%
    20:00 +30°C° 0 mm 3 mps 753 mmHg 82%
    21:00 +29°C° 0 mm 3 mps 754 mmHg 84%
    22:00 +29°C° 0.7 mm 3 mps 753 mmHg 85%
    23:00 +29°C° 0.7 mm 3 mps 753 mmHg 86%
    Show more